Time,TemperatureF,DewpointF,PressureIn,WindDirection,WindDirectionDegrees,WindSpeedMPH,WindSpeedGustMPH,Humidity,HourlyPrecipIn,Conditions,Clouds,dailyrainin,SoftwareType,DateUTC
2013-12-25 00:02:00,29.5,17.6,39.22,North,0,0.0,1.6,49,0.00,,,0.00,fowsr,2013-12-25 05:02:00,
2013-12-25 00:07:00,29.5,17.3,39.42,NE,45,0.0,0.0,48,0.00,,,0.00,fowsr,2013-12-25 05:07:00,
2013-12-25 00:12:00,29.3,17.1,39.84,South,180,0.0,0.7,48,0.00,,,0.00,fowsr,2013-12-25 05:12:00,
2013-12-25 00:17:00,29.3,17.1,40.02,North,0,0.0,0.7,48,0.00,,,0.00,fowsr,2013-12-25 05:17:00,
2013-12-25 00:22:00,29.3,17.1,40.07,North,0,0.0,0.0,48,0.00,,,0.00,fowsr,2013-12-25 05:22:00,
2013-12-25 00:27:00,29.3,17.5,40.07,North,0,0.0,0.0,49,0.00,,,0.00,fowsr,2013-12-25 05:27:00,
2013-12-25 00:32:00,29.1,17.3,39.93,SE,135,0.0,0.0,49,0.00,,,0.00,fowsr,2013-12-25 05:32:00,
2013-12-25 00:37:00,28.9,17.1,39.56,SE,135,0.0,0.0,49,0.00,,,0.00,fowsr,2013-12-25 05:37:00,
2013-12-25 00:42:00,28.8,17.3,39.28,NW,315,0.0,0.7,50,0.00,,,0.00,fowsr,2013-12-25 05:42:00,
2013-12-25 00:52:00,28.6,17.4,39.18,East,90,0.0,0.7,51,0.00,,,0.00,fowsr,2013-12-25 05:52:00,
2013-12-25 00:57:00,28.4,17.3,39.42,East,90,0.0,0.0,51,0.00,,,0.00,fowsr,2013-12-25 05:57:00,
2013-12-25 01:02:00,28.4,17.3,39.84,SSW,202,0.0,0.0,51,0.00,,,0.00,fowsr,2013-12-25 06:02:00,
2013-12-25 01:07:00,28.4,17.3,40.25,East,90,0.0,0.0,51,0.00,,,0.00,fowsr,2013-12-25 06:07:00,
2013-12-25 01:12:00,28.2,15.8,40.72,NW,315,0.0,0.0,47,0.00,,,0.00,fowsr,2013-12-25 06:12:00,
2013-12-25 01:17:00,28.2,15.8,41.08,South,180,0.0,0.0,47,0.00,,,0.00,fowsr,2013-12-25 06:17:00,
2013-12-25 01:22:00,28.2,16.2,41.18,SE,135,0.0,0.0,48,0.00,,,0.00,fowsr,2013-12-25 06:22:00,
2013-12-25 01:27:00,28.2,16.2,41.13,SE,135,0.0,0.0,48,0.00,,,0.00,fowsr,2013-12-25 06:27:00,
2013-12-25 01:32:00,28.0,16.0,41.00,West,270,0.0,0.0,48,0.00,,,0.00,fowsr,2013-12-25 06:32:00,
2013-12-25 01:37:00,28.0,16.0,40.58,West,270,0.0,0.0,48,0.00,,,0.00,fowsr,2013-12-25 06:37:00,
2013-12-25 01:42:00,28.0,16.0,40.25,West,270,0.0,0.0,48,0.00,,,0.00,fowsr,2013-12-25 06:42:00,
2013-12-25 01:47:00,27.9,15.8,40.02,West,270,0.0,0.0,48,0.00,,,0.00,fowsr,2013-12-25 06:47:00,
2013-12-25 01:52:00,27.9,15.8,39.56,West,270,0.0,0.0,48,0.00,,,0.00,fowsr,2013-12-25 06:52:00,
2013-12-25 01:57:00,27.7,16.0,39.33,West,270,0.0,0.0,49,0.00,,,0.00,fowsr,2013-12-25 06:57:00,
2013-12-25 02:02:00,27.7,16.0,39.28,South,180,0.7,1.6,49,0.00,,,0.00,fowsr,2013-12-25 07:02:00,
2013-12-25 02:07:00,27.7,16.0,39.47,NW,315,0.0,0.0,49,0.00,,,0.00,fowsr,2013-12-25 07:07:00,
2013-12-25 02:12:00,27.7,16.0,39.89,NW,315,0.0,0.0,49,0.00,,,0.00,fowsr,2013-12-25 07:12:00,
2013-12-25 02:17:00,27.5,15.8,40.39,NW,315,0.0,0.0,49,0.00,,,0.00,fowsr,2013-12-25 07:17:00,
2013-12-25 02:22:00,27.5,15.8,40.86,NW,315,0.0,0.0,49,0.00,,,0.00,fowsr,2013-12-25 07:22:00,
2013-12-25 02:27:00,27.3,15.7,41.14,North,0,0.0,0.0,49,0.00,,,0.00,fowsr,2013-12-25 07:27:00,
2013-12-25 02:32:00,27.3,15.7,41.23,NW,315,0.0,0.0,49,0.00,,,0.00,fowsr,2013-12-25 07:32:00,
2013-12-25 02:37:00,27.3,15.7,41.19,NW,315,0.0,0.0,49,0.00,,,0.00,fowsr,2013-12-25 07:37:00,
2013-12-25 02:42:00,27.3,15.7,41.00,NW,315,0.0,0.0,49,0.00,,,0.00,fowsr,2013-12-25 07:42:00,
2013-12-25 02:47:00,27.3,15.7,40.72,NW,315,0.0,0.0,49,0.00,,,0.00,fowsr,2013-12-25 07:47:00,
2013-12-25 02:52:00,27.1,15.5,40.39,West,270,0.0,0.0,49,0.00,,,0.00,fowsr,2013-12-25 07:52:00,
2013-12-25 02:57:00,27.1,15.5,40.07,North,0,0.0,0.0,49,0.00,,,0.00,fowsr,2013-12-25 07:57:00,
2013-12-25 03:02:00,27.1,15.5,39.74,SE,135,0.0,0.0,49,0.00,,,0.00,fowsr,2013-12-25 08:02:00,
2013-12-25 03:07:00,27.0,15.3,39.33,North,0,0.0,0.0,49,0.00,,,0.00,fowsr,2013-12-25 08:07:00,
2013-12-25 03:12:00,27.0,15.0,39.19,NW,315,0.0,0.0,48,0.00,,,0.00,fowsr,2013-12-25 08:12:00,
2013-12-25 03:17:00,27.1,15.2,39.19,SE,135,0.0,0.7,48,0.00,,,0.00,fowsr,2013-12-25 08:17:00,
2013-12-25 03:22:00,27.1,14.8,39.42,SW,225,0.0,0.0,47,0.00,,,0.00,fowsr,2013-12-25 08:22:00,
2013-12-25 03:27:00,27.0,14.3,39.79,NW,315,0.0,0.7,46,0.00,,,0.00,fowsr,2013-12-25 08:27:00,
2013-12-25 03:32:00,27.1,14.5,40.26,SW,225,0.0,1.6,46,0.00,,,0.00,fowsr,2013-12-25 08:32:00,
2013-12-25 03:37:00,27.0,14.3,40.82,NE,45,0.0,0.7,46,0.00,,,0.00,fowsr,2013-12-25 08:37:00,
2013-12-25 03:42:00,27.0,14.0,41.05,SE,135,0.0,0.0,45,0.00,,,0.00,fowsr,2013-12-25 08:42:00,
2013-12-25 03:47:00,27.0,14.3,41.09,North,0,0.0,0.7,46,0.00,,,0.00,fowsr,2013-12-25 08:47:00,
2013-12-25 03:52:00,27.0,14.3,41.05,SW,225,0.0,0.0,46,0.00,,,0.00,fowsr,2013-12-25 08:52:00,
2013-12-25 03:57:00,27.0,14.0,40.77,West,270,0.0,0.0,45,0.00,,,0.00,fowsr,2013-12-25 08:57:00,
2013-12-25 04:02:00,26.8,13.8,40.54,North,0,0.0,0.0,45,0.00,,,0.00,fowsr,2013-12-25 09:02:00,
2013-12-25 04:07:00,26.8,13.8,40.17,West,270,0.0,0.7,45,0.00,,,0.00,fowsr,2013-12-25 09:07:00,
2013-12-25 04:12:00,26.6,13.7,39.94,SW,225,0.0,0.7,45,0.00,,,0.00,fowsr,2013-12-25 09:12:00,
2013-12-25 04:17:00,26.6,14.0,39.42,North,0,0.0,0.0,46,0.00,,,0.00,fowsr,2013-12-25 09:17:00,
2013-12-25 04:22:00,26.6,14.0,39.19,NW,315,0.0,0.0,46,0.00,,,0.00,fowsr,2013-12-25 09:22:00,
2013-12-25 04:27:00,26.4,14.2,39.19,South,180,0.0,0.7,47,0.00,,,0.00,fowsr,2013-12-25 09:27:00,
2013-12-25 04:32:00,26.4,14.2,39.19,South,180,0.0,0.0,47,0.00,,,0.00,fowsr,2013-12-25 09:32:00,
2013-12-25 04:37:00,26.2,14.3,39.38,South,180,0.0,0.0,48,0.00,,,0.00,fowsr,2013-12-25 09:37:00,
2013-12-25 04:42:00,26.1,14.2,39.75,South,180,0.0,0.0,48,0.00,,,0.00,fowsr,2013-12-25 09:42:00,
2013-12-25 04:47:00,26.1,14.2,40.21,East,90,0.0,0.0,48,0.00,,,0.00,fowsr,2013-12-25 09:47:00,
2013-12-25 04:52:00,25.9,14.0,40.63,NNW,337,0.0,0.0,48,0.00,,,0.00,fowsr,2013-12-25 09:52:00,
2013-12-25 04:57:00,25.9,14.0,40.91,SW,225,0.0,0.0,48,0.00,,,0.00,fowsr,2013-12-25 09:57:00,
2013-12-25 05:02:00,25.9,14.3,40.91,SW,225,0.0,0.0,49,0.00,,,0.00,fowsr,2013-12-25 10:02:00,
2013-12-25 05:07:00,25.7,14.2,40.91,SW,225,0.0,0.0,49,0.00,,,0.00,fowsr,2013-12-25 10:07:00,
2013-12-25 05:12:00,25.7,14.2,40.68,SW,225,0.0,0.0,49,0.00,,,0.00,fowsr,2013-12-25 10:12:00,
2013-12-25 05:17:00,25.7,14.2,40.31,SW,225,0.0,0.0,49,0.00,,,0.00,fowsr,2013-12-25 10:17:00,
2013-12-25 05:22:00,25.5,14.0,40.03,SE,135,0.0,0.0,49,0.00,,,0.00,fowsr,2013-12-25 10:22:00,
2013-12-25 05:27:00,25.5,14.0,39.56,NW,315,0.0,0.0,49,0.00,,,0.00,fowsr,2013-12-25 10:27:00,
2013-12-25 05:32:00,25.3,13.8,39.19,NW,315,0.0,0.0,49,0.00,,,0.00,fowsr,2013-12-25 10:32:00,
2013-12-25 05:37:00,25.3,13.8,39.19,South,180,0.0,0.0,49,0.00,,,0.00,fowsr,2013-12-25 10:37:00,
2013-12-25 05:42:00,25.2,13.7,39.19,NW,315,0.0,0.7,49,0.00,,,0.00,fowsr,2013-12-25 10:42:00,
2013-12-25 05:47:00,25.2,14.0,39.19,SW,225,0.0,0.0,50,0.00,,,0.00,fowsr,2013-12-25 10:47:00,
2013-12-25 05:52:00,25.0,13.8,39.38,SW,225,0.0,0.0,50,0.00,,,0.00,fowsr,2013-12-25 10:52:00,
2013-12-25 05:57:00,25.0,13.8,39.90,South,180,0.0,0.0,50,0.00,,,0.00,fowsr,2013-12-25 10:57:00,
2013-12-25 06:02:00,25.0,14.1,40.17,South,180,0.0,0.0,51,0.00,,,0.00,fowsr,2013-12-25 11:02:00,
2013-12-25 06:07:00,24.8,14.0,40.40,South,180,0.0,0.0,51,0.00,,,0.00,fowsr,2013-12-25 11:07:00,
2013-12-25 06:12:00,24.8,14.0,40.78,South,180,0.0,0.7,51,0.00,,,0.00,fowsr,2013-12-25 11:12:00,
2013-12-25 06:17:00,24.6,14.1,40.87,South,180,0.0,0.0,52,0.00,,,0.00,fowsr,2013-12-25 11:17:00,
2013-12-25 06:22:00,24.6,14.1,40.82,South,180,0.0,0.0,52,0.00,,,0.00,fowsr,2013-12-25 11:22:00,
2013-12-25 06:27:00,24.4,14.2,40.59,West,270,0.0,0.0,53,0.00,,,0.00,fowsr,2013-12-25 11:27:00,
2013-12-25 06:32:00,24.4,14.2,40.17,South,180,0.0,0.0,53,0.00,,,0.00,fowsr,2013-12-25 11:32:00,
2013-12-25 06:37:00,24.4,14.2,39.66,NW,315,0.0,0.0,53,0.00,,,0.00,fowsr,2013-12-25 11:37:00,
2013-12-25 06:42:00,24.3,14.1,39.24,NW,315,0.0,0.0,53,0.00,,,0.00,fowsr,2013-12-25 11:42:00,
2013-12-25 06:47:00,24.3,14.1,39.15,NW,315,0.0,0.0,53,0.00,,,0.00,fowsr,2013-12-25 11:47:00,
2013-12-25 06:52:00,24.1,14.2,39.15,NW,315,0.0,0.0,54,0.00,,,0.00,fowsr,2013-12-25 11:52:00,
2013-12-25 06:57:00,24.1,14.2,39.15,NW,315,0.0,0.0,54,0.00,,,0.00,fowsr,2013-12-25 11:57:00,
2013-12-25 07:02:00,24.1,14.2,39.15,SW,225,0.0,0.7,54,0.00,,,0.00,fowsr,2013-12-25 12:02:00,
2013-12-25 07:07:00,23.9,14.0,39.15,SW,225,0.0,0.0,54,0.00,,,0.00,fowsr,2013-12-25 12:07:00,
2013-12-25 07:12:00,23.7,14.1,39.15,SW,225,0.0,0.0,55,0.00,,,0.00,fowsr,2013-12-25 12:12:00,
2013-12-25 07:17:00,23.7,14.1,39.15,SW,225,0.0,0.0,55,0.00,,,0.00,fowsr,2013-12-25 12:17:00,
2013-12-25 07:22:00,23.7,14.1,39.15,SW,225,0.0,0.0,55,0.00,,,0.00,fowsr,2013-12-25 12:22:00,
2013-12-25 07:27:00,23.5,14.0,39.15,SW,225,0.0,0.0,55,0.00,,,0.00,fowsr,2013-12-25 12:27:00,
2013-12-25 07:32:00,23.5,14.0,39.15,SW,225,0.0,0.0,55,0.00,,,0.00,fowsr,2013-12-25 12:32:00,
2013-12-25 07:37:00,23.4,13.8,39.15,SW,225,0.0,0.0,55,0.00,,,0.00,fowsr,2013-12-25 12:37:00,
2013-12-25 07:42:00,23.4,14.1,39.15,SW,225,0.0,0.0,56,0.00,,,0.00,fowsr,2013-12-25 12:42:00,
2013-12-25 07:47:00,23.4,14.1,39.15,SW,225,0.0,0.0,56,0.00,,,0.00,fowsr,2013-12-25 12:47:00,
2013-12-25 07:52:00,23.4,14.3,39.15,SW,225,0.0,0.0,57,0.00,,,0.00,fowsr,2013-12-25 12:52:00,
2013-12-25 07:57:00,23.4,14.3,39.15,East,90,0.0,0.0,57,0.00,,,0.00,fowsr,2013-12-25 12:57:00,
2013-12-25 08:02:00,23.4,14.1,39.15,East,90,0.0,0.0,56,0.00,,,0.00,fowsr,2013-12-25 13:02:00,
2013-12-25 08:07:00,23.4,14.1,39.15,East,90,0.0,0.0,56,0.00,,,0.00,fowsr,2013-12-25 13:07:00,
2013-12-25 08:12:00,23.5,14.5,39.15,South,180,0.0,0.0,57,0.00,,,0.00,fowsr,2013-12-25 13:12:00,
2013-12-25 08:17:00,23.7,14.4,39.15,East,90,0.0,0.7,56,0.00,,,0.00,fowsr,2013-12-25 13:17:00,
2013-12-25 08:22:00,24.1,14.7,39.15,East,90,0.0,0.0,56,0.00,,,0.00,fowsr,2013-12-25 13:22:00,
2013-12-25 08:27:00,24.3,14.6,39.15,SE,135,0.0,0.0,55,0.00,,,0.00,fowsr,2013-12-25 13:27:00,
2013-12-25 08:32:00,24.4,14.8,39.15,South,180,0.0,0.7,55,0.00,,,0.00,fowsr,2013-12-25 13:32:00,
2013-12-25 08:37:00,24.6,15.0,39.15,North,0,0.0,0.0,55,0.00,,,0.00,fowsr,2013-12-25 13:37:00,
2013-12-25 08:42:00,25.0,14.7,39.15,South,180,0.0,0.0,53,0.00,,,0.00,fowsr,2013-12-25 13:42:00,
2013-12-25 08:47:00,25.2,14.9,39.15,West,270,0.0,0.7,53,0.00,,,0.00,fowsr,2013-12-25 13:47:00,
2013-12-25 08:52:00,25.3,14.8,39.15,East,90,0.0,0.0,52,0.00,,,0.00,fowsr,2013-12-25 13:52:00,
2013-12-25 08:57:00,25.7,14.8,39.15,NE,45,0.0,0.7,51,0.00,,,0.00,fowsr,2013-12-25 13:57:00,
2013-12-25 09:02:00,26.1,15.1,39.15,SE,135,0.0,1.6,51,0.00,,,0.00,fowsr,2013-12-25 14:02:00,
2013-12-25 09:07:00,26.4,15.1,39.15,NW,315,0.0,0.7,50,0.00,,,0.00,fowsr,2013-12-25 14:07:00,
2013-12-25 09:12:00,26.6,14.7,39.15,East,90,0.0,0.0,48,0.00,,,0.00,fowsr,2013-12-25 14:12:00,
2013-12-25 09:17:00,27.0,14.7,39.15,NE,45,0.0,0.0,47,0.00,,,0.00,fowsr,2013-12-25 14:17:00,
2013-12-25 09:22:00,27.3,14.3,39.15,East,90,0.0,0.7,45,0.00,,,0.00,fowsr,2013-12-25 14:22:00,
2013-12-25 09:27:00,27.7,14.3,39.15,North,0,0.0,0.7,44,0.00,,,0.00,fowsr,2013-12-25 14:27:00,
2013-12-25 09:32:00,28.0,14.6,39.15,NE,45,0.0,0.7,44,0.00,,,0.00,fowsr,2013-12-25 14:32:00,
2013-12-25 09:37:00,28.8,16.3,39.15,NE,45,0.0,0.7,47,0.00,,,0.00,fowsr,2013-12-25 14:37:00,
2013-12-25 09:42:00,30.0,17.1,39.15,East,90,0.0,0.0,46,0.00,,,0.00,fowsr,2013-12-25 14:42:00,
2013-12-25 09:47:00,31.5,17.7,39.15,NW,315,0.0,1.6,44,0.00,,,0.00,fowsr,2013-12-25 14:47:00,
2013-12-25 09:52:00,32.5,17.9,39.15,SE,135,0.0,2.2,42,0.00,,,0.00,fowsr,2013-12-25 14:52:00,
2013-12-25 09:57:00,33.4,18.4,39.15,North,0,0.7,1.6,41,0.00,,,0.00,fowsr,2013-12-25 14:57:00,
2013-12-25 10:02:00,34.0,18.0,39.15,SW,225,0.0,0.7,39,0.00,,,0.00,fowsr,2013-12-25 15:02:00,
2013-12-25 10:07:00,34.5,18.5,39.15,East,90,0.0,0.7,39,0.00,,,0.00,fowsr,2013-12-25 15:07:00,
2013-12-25 10:12:00,35.2,19.2,39.15,North,0,0.0,0.7,39,0.00,,,0.00,fowsr,2013-12-25 15:12:00,
2013-12-25 10:17:00,36.0,18.1,39.15,West,270,0.0,0.7,35,0.00,,,0.00,fowsr,2013-12-25 15:17:00,
2013-12-25 10:22:00,36.3,17.4,39.15,NW,315,0.0,0.7,33,0.00,,,0.00,fowsr,2013-12-25 15:22:00,
2013-12-25 10:27:00,36.7,16.8,39.15,SE,135,0.0,0.0,31,0.00,,,0.00,fowsr,2013-12-25 15:27:00,
2013-12-25 10:32:00,36.9,15.9,39.15,South,180,0.0,2.2,29,0.00,,,0.00,fowsr,2013-12-25 15:32:00,
2013-12-25 10:37:00,37.2,16.2,39.15,SE,135,0.0,0.7,29,0.00,,,0.00,fowsr,2013-12-25 15:37:00,
2013-12-25 10:42:00,37.4,17.9,39.15,West,270,0.0,0.7,32,0.00,,,0.00,fowsr,2013-12-25 15:42:00,
2013-12-25 10:47:00,37.4,17.9,39.15,SE,135,0.0,0.7,32,0.00,,,0.00,fowsr,2013-12-25 15:47:00,
2013-12-25 10:52:00,38.3,19.6,39.15,North,0,0.0,0.7,34,0.00,,,0.00,fowsr,2013-12-25 15:52:00,
2013-12-25 10:57:00,38.8,19.1,39.15,NE,45,0.0,0.0,32,0.00,,,0.00,fowsr,2013-12-25 15:57:00,
2013-12-25 11:02:00,39.0,18.8,39.15,North,0,0.0,0.7,31,0.00,,,0.00,fowsr,2013-12-25 16:02:00,
2013-12-25 11:07:00,39.2,17.9,39.15,SE,135,0.0,0.7,29,0.00,,,0.00,fowsr,2013-12-25 16:07:00,
2013-12-25 11:12:00,39.6,18.7,39.15,North,0,0.0,0.0,30,0.00,,,0.00,fowsr,2013-12-25 16:12:00,
2013-12-25 11:17:00,39.6,18.2,39.15,SE,135,0.0,1.6,29,0.00,,,0.00,fowsr,2013-12-25 16:17:00,
2013-12-25 11:22:00,40.1,19.2,39.15,SE,135,1.6,2.2,30,0.00,,,0.00,fowsr,2013-12-25 16:22:00,
2013-12-25 11:27:00,39.9,17.9,39.15,West,270,0.0,0.0,28,0.00,,,0.00,fowsr,2013-12-25 16:27:00,
2013-12-25 11:32:00,39.4,16.9,39.15,SE,135,0.0,0.0,27,0.00,,,0.00,fowsr,2013-12-25 16:32:00,
2013-12-25 11:37:00,39.2,16.7,39.15,SE,135,2.2,3.1,27,0.00,,,0.00,fowsr,2013-12-25 16:37:00,
2013-12-25 11:42:00,37.9,16.2,39.15,SE,135,1.6,2.2,28,0.00,,,0.00,fowsr,2013-12-25 16:42:00,
2013-12-25 11:47:00,37.4,15.8,39.15,SE,135,0.7,2.2,28,0.00,,,0.00,fowsr,2013-12-25 16:47:00,
2013-12-25 11:52:00,37.6,16.5,39.15,South,180,0.0,0.7,29,0.00,,,0.00,fowsr,2013-12-25 16:52:00,
2013-12-25 11:57:00,38.8,18.1,39.15,South,180,0.0,0.7,30,0.00,,,0.00,fowsr,2013-12-25 16:57:00,
2013-12-25 12:02:00,39.2,17.3,39.15,SE,135,0.0,0.0,28,0.00,,,0.00,fowsr,2013-12-25 17:02:00,
2013-12-25 12:07:00,39.7,18.3,39.15,SE,135,0.0,0.0,29,0.00,,,0.00,fowsr,2013-12-25 17:07:00,
2013-12-25 12:12:00,40.6,17.9,39.15,SE,135,1.6,3.8,27,0.00,,,0.00,fowsr,2013-12-25 17:12:00,
2013-12-25 12:17:00,40.8,18.1,39.15,NE,45,0.0,0.7,27,0.00,,,0.00,fowsr,2013-12-25 17:17:00,
2013-12-25 12:22:00,41.5,18.1,39.15,East,90,0.0,0.0,26,0.00,,,0.00,fowsr,2013-12-25 17:22:00,
2013-12-25 12:27:00,41.9,18.4,39.20,SE,135,0.0,0.7,26,0.00,,,0.00,fowsr,2013-12-25 17:27:00,
2013-12-25 12:32:00,41.9,17.8,39.38,NW,315,0.0,0.7,25,0.00,,,0.00,fowsr,2013-12-25 17:32:00,
2013-12-25 12:37:00,41.7,17.0,39.57,SE,135,1.6,2.2,24,0.00,,,0.00,fowsr,2013-12-25 17:37:00,
2013-12-25 12:42:00,41.2,16.5,39.75,North,0,0.0,0.7,24,0.00,,,0.00,fowsr,2013-12-25 17:42:00,
2013-12-25 12:47:00,41.2,15.9,39.90,SW,225,0.0,0.7,23,0.00,,,0.00,fowsr,2013-12-25 17:47:00,
2013-12-25 12:52:00,41.4,16.0,39.98,SE,135,0.0,0.7,23,0.00,,,0.00,fowsr,2013-12-25 17:52:00,
2013-12-25 12:57:00,41.7,17.0,40.08,SE,135,3.1,3.8,24,0.00,,,0.00,fowsr,2013-12-25 17:57:00,
2013-12-25 13:02:00,41.5,16.2,40.17,NW,315,0.0,0.7,23,0.00,,,0.00,fowsr,2013-12-25 18:02:00,
2013-12-25 13:07:00,41.7,16.3,40.31,East,90,1.6,2.2,23,0.00,,,0.00,fowsr,2013-12-25 18:07:00,
2013-12-25 13:12:00,42.3,17.4,40.35,SW,225,0.0,1.6,24,0.00,,,0.00,fowsr,2013-12-25 18:12:00,
2013-12-25 13:17:00,42.4,16.9,40.40,NW,315,0.0,0.7,23,0.00,,,0.00,fowsr,2013-12-25 18:17:00,
2013-12-25 13:22:00,42.4,16.9,40.49,South,180,0.7,1.6,23,0.00,,,0.00,fowsr,2013-12-25 18:22:00,
2013-12-25 13:27:00,42.1,16.6,40.63,SE,135,0.0,1.6,23,0.00,,,0.00,fowsr,2013-12-25 18:27:00,
2013-12-25 13:32:00,42.4,16.9,40.81,SE,135,0.0,0.7,23,0.00,,,0.00,fowsr,2013-12-25 18:32:00,
2013-12-25 13:37:00,43.0,16.6,40.95,SW,225,0.0,0.7,22,0.00,,,0.00,fowsr,2013-12-25 18:37:00,
2013-12-25 13:42:00,43.3,16.9,41.04,West,270,0.0,0.0,22,0.00,,,0.00,fowsr,2013-12-25 18:42:00,
2013-12-25 13:47:00,43.5,17.1,41.13,West,270,0.0,1.6,22,0.00,,,0.00,fowsr,2013-12-25 18:47:00,
2013-12-25 13:52:00,43.0,16.6,41.18,NNE,22,0.0,0.7,22,0.00,,,0.00,fowsr,2013-12-25 18:52:00,
2013-12-25 13:57:00,43.3,16.9,41.27,NW,315,0.0,0.0,22,0.00,,,0.00,fowsr,2013-12-25 18:57:00,
2013-12-25 14:02:00,43.5,17.1,41.37,NW,315,0.7,1.6,22,0.00,,,0.00,fowsr,2013-12-25 19:02:00,
2013-12-25 14:07:00,43.9,17.4,41.46,South,180,0.7,1.6,22,0.00,,,0.00,fowsr,2013-12-25 19:07:00,
2013-12-25 14:12:00,44.1,17.5,41.60,NE,45,1.6,2.2,22,0.00,,,0.00,fowsr,2013-12-25 19:12:00,
2013-12-25 14:17:00,43.0,16.6,41.69,South,180,0.7,1.6,22,0.00,,,0.00,fowsr,2013-12-25 19:17:00,
2013-12-25 14:22:00,43.0,16.6,41.83,SW,225,3.1,4.5,22,0.00,,,0.00,fowsr,2013-12-25 19:22:00,
2013-12-25 14:27:00,42.8,16.5,41.92,East,90,0.0,0.7,22,0.00,,,0.00,fowsr,2013-12-25 19:27:00,
2013-12-25 14:32:00,42.6,17.1,41.92,SSE,157,0.7,2.2,23,0.00,,,0.00,fowsr,2013-12-25 19:32:00,
2013-12-25 14:37:00,42.8,16.5,42.01,SE,135,1.6,2.2,22,0.00,,,0.00,fowsr,2013-12-25 19:37:00,
2013-12-25 14:42:00,43.0,16.6,42.06,North,0,0.0,0.0,22,0.00,,,0.00,fowsr,2013-12-25 19:42:00,
2013-12-25 14:47:00,43.5,17.8,42.10,SE,135,0.0,0.0,23,0.00,,,0.00,fowsr,2013-12-25 19:47:00,
2013-12-25 14:52:00,43.5,17.8,42.15,SE,135,0.0,0.7,23,0.00,,,0.00,fowsr,2013-12-25 19:52:00,
2013-12-25 14:57:00,43.3,17.6,42.19,North,0,0.0,0.7,23,0.00,,,0.00,fowsr,2013-12-25 19:57:00,
2013-12-25 15:02:00,43.5,17.1,42.19,NW,315,0.0,0.0,22,0.00,,,0.00,fowsr,2013-12-25 20:02:00,
2013-12-25 15:07:00,43.5,17.8,42.15,SE,135,0.0,1.6,23,0.00,,,0.00,fowsr,2013-12-25 20:07:00,
2013-12-25 15:12:00,43.0,16.6,42.15,West,270,0.0,0.0,22,0.00,,,0.00,fowsr,2013-12-25 20:12:00,
2013-12-25 15:17:00,42.4,17.6,42.19,West,270,0.0,0.0,24,0.00,,,0.00,fowsr,2013-12-25 20:17:00,
2013-12-25 15:22:00,42.8,17.2,42.28,North,0,0.0,0.0,23,0.00,,,0.00,fowsr,2013-12-25 20:22:00,
2013-12-25 15:27:00,43.3,17.6,42.24,SE,135,0.0,1.6,23,0.00,,,0.00,fowsr,2013-12-25 20:27:00,
2013-12-25 15:32:00,43.3,16.9,42.38,East,90,0.0,0.7,22,0.00,,,0.00,fowsr,2013-12-25 20:32:00,
2013-12-25 15:37:00,43.3,16.9,42.38,North,0,0.0,0.0,22,0.00,,,0.00,fowsr,2013-12-25 20:37:00,
2013-12-25 15:42:00,43.5,17.8,42.33,South,180,0.0,0.7,23,0.00,,,0.00,fowsr,2013-12-25 20:42:00,
2013-12-25 15:47:00,43.3,16.9,42.47,NW,315,0.0,0.7,22,0.00,,,0.00,fowsr,2013-12-25 20:47:00,
2013-12-25 15:52:00,42.3,16.8,42.38,NW,315,0.0,0.7,23,0.00,,,0.00,fowsr,2013-12-25 20:52:00,
2013-12-25 15:57:00,41.2,15.9,42.33,SE,135,0.0,0.0,23,0.00,,,0.00,fowsr,2013-12-25 20:57:00,
2013-12-25 16:02:00,40.8,17.5,42.33,South,180,0.0,0.7,26,0.00,,,0.00,fowsr,2013-12-25 21:02:00,
2013-12-25 16:07:00,40.3,17.0,42.33,South,180,0.0,0.0,26,0.00,,,0.00,fowsr,2013-12-25 21:07:00,
2013-12-25 16:12:00,39.7,16.6,42.24,SE,135,0.0,0.0,26,0.00,,,0.00,fowsr,2013-12-25 21:12:00,
2013-12-25 16:17:00,39.4,16.3,42.19,North,0,0.0,0.0,26,0.00,,,0.00,fowsr,2013-12-25 21:17:00,
2013-12-25 16:22:00,39.2,16.7,42.15,North,0,0.0,0.0,27,0.00,,,0.00,fowsr,2013-12-25 21:22:00,
2013-12-25 16:27:00,39.0,17.2,42.06,North,0,0.0,0.0,28,0.00,,,0.00,fowsr,2013-12-25 21:27:00,
2013-12-25 16:32:00,38.7,17.4,42.05,North,0,0.0,0.0,29,0.00,,,0.00,fowsr,2013-12-25 21:32:00,
2013-12-25 16:37:00,38.1,17.5,42.05,North,0,0.0,0.0,30,0.00,,,0.00,fowsr,2013-12-25 21:37:00,
2013-12-25 16:42:00,37.8,17.7,42.06,North,0,0.0,0.0,31,0.00,,,0.00,fowsr,2013-12-25 21:42:00,
2013-12-25 16:47:00,37.6,18.0,42.01,North,0,0.0,0.0,32,0.00,,,0.00,fowsr,2013-12-25 21:47:00,
2013-12-25 16:52:00,37.4,17.9,41.96,North,0,0.0,0.0,32,0.00,,,0.00,fowsr,2013-12-25 21:52:00,
2013-12-25 16:57:00,37.0,16.0,41.96,North,0,0.0,0.0,29,0.00,,,0.00,fowsr,2013-12-25 21:57:00,
2013-12-25 17:02:00,36.7,16.2,41.96,North,0,0.0,0.0,30,0.00,,,0.00,fowsr,2013-12-25 22:02:00,
2013-12-25 17:07:00,36.5,16.6,41.92,North,0,0.0,0.0,31,0.00,,,0.00,fowsr,2013-12-25 22:07:00,
2013-12-25 17:12:00,36.0,17.1,41.87,North,0,0.0,0.0,33,0.00,,,0.00,fowsr,2013-12-25 22:12:00,
2013-12-25 17:17:00,35.6,16.8,41.82,North,0,0.0,0.0,33,0.00,,,0.00,fowsr,2013-12-25 22:17:00,
2013-12-25 17:22:00,35.2,17.4,41.73,North,0,0.0,0.0,35,0.00,,,0.00,fowsr,2013-12-25 22:22:00,
2013-12-25 17:27:00,34.9,18.0,41.73,North,0,0.0,0.0,37,0.00,,,0.00,fowsr,2013-12-25 22:27:00,
2013-12-25 17:32:00,34.3,18.4,41.63,North,0,0.0,0.0,39,0.00,,,0.00,fowsr,2013-12-25 22:32:00,
2013-12-25 17:37:00,34.0,18.0,41.45,North,0,0.0,0.0,39,0.00,,,0.00,fowsr,2013-12-25 22:37:00,
2013-12-25 17:42:00,33.8,18.3,41.36,North,0,0.0,0.0,40,0.00,,,0.00,fowsr,2013-12-25 22:42:00,
2013-12-25 17:47:00,33.4,18.4,41.36,North,0,0.0,0.0,41,0.00,,,0.00,fowsr,2013-12-25 22:47:00,
2013-12-25 17:52:00,33.1,18.4,41.26,North,0,0.0,0.0,42,0.00,,,0.00,fowsr,2013-12-25 22:52:00,
2013-12-25 17:57:00,32.9,18.3,41.17,North,0,0.0,0.0,42,0.00,,,0.00,fowsr,2013-12-25 22:57:00,
2013-12-25 18:02:00,32.5,18.3,41.17,North,0,0.0,0.0,43,0.00,,,0.00,fowsr,2013-12-25 23:02:00,
2013-12-25 18:07:00,32.2,18.0,41.17,North,0,0.0,0.0,43,0.00,,,0.00,fowsr,2013-12-25 23:07:00,
2013-12-25 18:12:00,32.0,18.2,41.13,North,0,0.0,0.0,44,0.00,,,0.00,fowsr,2013-12-25 23:12:00,
2013-12-25 18:17:00,31.5,18.1,41.03,North,0,0.0,0.0,45,0.00,,,0.00,fowsr,2013-12-25 23:17:00,
2013-12-25 18:22:00,31.1,17.7,40.94,North,0,0.0,0.0,45,0.00,,,0.00,fowsr,2013-12-25 23:22:00,
2013-12-25 18:27:00,30.7,17.8,40.89,North,0,0.0,0.0,46,0.00,,,0.00,fowsr,2013-12-25 23:27:00,
2013-12-25 18:32:00,30.6,17.9,40.75,North,0,0.0,0.0,47,0.00,,,0.00,fowsr,2013-12-25 23:32:00,
2013-12-25 18:37:00,30.4,17.8,40.61,North,0,0.0,0.0,47,0.00,,,0.00,fowsr,2013-12-25 23:37:00,
2013-12-25 18:42:00,30.2,18.0,40.48,North,0,0.0,0.0,48,0.00,,,0.00,fowsr,2013-12-25 23:42:00,
2013-12-25 18:47:00,30.0,18.1,40.38,North,0,0.0,0.0,49,0.00,,,0.00,fowsr,2013-12-25 23:47:00,
2013-12-25 18:52:00,29.8,18.3,40.20,North,0,0.0,0.0,50,0.00,,,0.00,fowsr,2013-12-25 23:52:00,
2013-12-25 18:57:00,29.7,18.4,40.01,North,0,0.0,0.0,51,0.00,,,0.00,fowsr,2013-12-25 23:57:00,
2013-12-25 19:02:00,29.5,18.6,39.96,North,0,0.0,0.0,52,0.00,,,0.00,fowsr,2013-12-26 00:02:00,
2013-12-25 19:07:00,29.3,18.4,39.87,North,0,0.0,0.0,52,0.00,,,0.00,fowsr,2013-12-26 00:07:00,
2013-12-25 19:12:00,29.1,18.5,39.83,North,0,0.0,0.0,53,0.00,,,0.00,fowsr,2013-12-26 00:12:00,
2013-12-25 19:17:00,29.1,18.5,39.78,North,0,0.0,0.0,53,0.00,,,0.00,fowsr,2013-12-26 00:17:00,
2013-12-25 19:22:00,28.9,18.4,39.64,North,0,0.0,0.0,53,0.00,,,0.00,fowsr,2013-12-26 00:22:00,
2013-12-25 19:27:00,28.9,18.7,39.50,North,0,0.0,0.0,54,0.00,,,0.00,fowsr,2013-12-26 00:27:00,
2013-12-25 19:32:00,28.9,18.7,39.41,North,0,0.0,0.0,54,0.00,,,0.00,fowsr,2013-12-26 00:32:00,
2013-12-25 19:37:00,28.9,18.7,39.17,North,0,0.0,0.0,54,0.00,,,0.00,fowsr,2013-12-26 00:37:00,
2013-12-25 19:42:00,28.9,18.7,39.17,North,0,0.0,0.0,54,0.00,,,0.00,fowsr,2013-12-26 00:42:00,
2013-12-25 19:47:00,28.8,18.8,39.17,North,0,0.0,0.0,55,0.00,,,0.00,fowsr,2013-12-26 00:47:00,
2013-12-25 19:52:00,28.8,18.8,39.17,North,0,0.0,0.0,55,0.00,,,0.00,fowsr,2013-12-26 00:52:00,
2013-12-25 19:57:00,28.6,18.6,39.17,North,0,0.0,0.0,55,0.00,,,0.00,fowsr,2013-12-26 00:57:00,
2013-12-25 20:02:00,28.6,18.6,39.17,North,0,0.0,0.0,55,0.00,,,0.00,fowsr,2013-12-26 01:02:00,
2013-12-25 20:07:00,28.4,18.5,39.17,North,0,0.0,0.0,55,0.00,,,0.00,fowsr,2013-12-26 01:07:00,
2013-12-25 20:12:00,28.4,18.8,39.17,North,0,0.0,0.0,56,0.00,,,0.00,fowsr,2013-12-26 01:12:00,
2013-12-25 20:17:00,28.4,18.8,39.17,North,0,0.0,0.0,56,0.00,,,0.00,fowsr,2013-12-26 01:17:00,
2013-12-25 20:22:00,28.2,17.7,39.17,North,0,0.0,0.0,53,0.00,,,0.00,fowsr,2013-12-26 01:22:00,
2013-12-25 20:27:00,28.2,18.0,39.17,North,0,0.0,0.0,54,0.00,,,0.00,fowsr,2013-12-26 01:27:00,
2013-12-25 20:32:00,28.0,17.8,39.17,North,0,0.0,0.0,54,0.00,,,0.00,fowsr,2013-12-26 01:32:00,
2013-12-25 20:37:00,28.0,17.8,39.17,North,0,0.0,0.0,54,0.00,,,0.00,fowsr,2013-12-26 01:37:00,
2013-12-25 20:42:00,27.9,17.7,39.17,North,0,0.0,0.0,54,0.00,,,0.00,fowsr,2013-12-26 01:42:00,
2013-12-25 20:47:00,27.9,18.0,39.17,North,0,0.0,0.0,55,0.00,,,0.00,fowsr,2013-12-26 01:47:00,
2013-12-25 20:52:00,27.7,17.8,39.17,North,0,0.0,0.0,55,0.00,,,0.00,fowsr,2013-12-26 01:52:00,
2013-12-25 20:57:00,27.7,17.8,39.17,North,0,0.0,0.0,55,0.00,,,0.00,fowsr,2013-12-26 01:57:00,
2013-12-25 21:02:00,27.5,17.6,39.17,North,0,0.0,0.0,55,0.00,,,0.00,fowsr,2013-12-26 02:02:00,
2013-12-25 21:07:00,27.5,17.9,39.17,North,0,0.0,0.0,56,0.00,,,0.00,fowsr,2013-12-26 02:07:00,
2013-12-25 21:12:00,27.3,17.8,39.17,North,0,0.0,0.0,56,0.00,,,0.00,fowsr,2013-12-26 02:12:00,
2013-12-25 21:17:00,27.3,17.8,39.17,North,0,0.0,0.0,56,0.00,,,0.00,fowsr,2013-12-26 02:17:00,
2013-12-25 21:22:00,27.1,17.9,39.17,North,0,0.0,0.0,57,0.00,,,0.00,fowsr,2013-12-26 02:22:00,
2013-12-25 21:27:00,27.1,17.9,39.17,North,0,0.0,0.0,57,0.00,,,0.00,fowsr,2013-12-26 02:27:00,
2013-12-25 21:32:00,27.1,17.9,39.17,North,0,0.0,0.0,57,0.00,,,0.00,fowsr,2013-12-26 02:32:00,
2013-12-25 21:37:00,27.1,18.1,39.17,North,0,0.0,0.0,58,0.00,,,0.00,fowsr,2013-12-26 02:37:00,
2013-12-25 21:42:00,27.1,18.1,39.17,North,0,0.0,0.0,58,0.00,,,0.00,fowsr,2013-12-26 02:42:00,
2013-12-25 21:47:00,27.1,17.9,39.17,North,0,0.0,0.0,57,0.00,,,0.00,fowsr,2013-12-26 02:47:00,
2013-12-25 21:52:00,27.1,17.9,39.17,North,0,0.0,0.0,57,0.00,,,0.00,fowsr,2013-12-26 02:52:00,
2013-12-25 21:57:00,27.1,17.9,39.17,North,0,0.0,0.0,57,0.00,,,0.00,fowsr,2013-12-26 02:57:00,
2013-12-25 22:02:00,27.1,18.1,39.17,North,0,0.0,0.0,58,0.00,,,0.00,fowsr,2013-12-26 03:02:00,
2013-12-25 22:07:00,27.0,18.0,39.17,North,0,0.0,0.0,58,0.00,,,0.00,fowsr,2013-12-26 03:07:00,
2013-12-25 22:12:00,27.1,18.1,39.17,North,0,0.0,0.0,58,0.00,,,0.00,fowsr,2013-12-26 03:12:00,
2013-12-25 22:17:00,27.1,18.1,39.17,North,0,0.0,0.0,58,0.00,,,0.00,fowsr,2013-12-26 03:17:00,
2013-12-25 22:22:00,27.0,18.3,39.17,North,0,0.0,0.0,59,0.00,,,0.00,fowsr,2013-12-26 03:22:00,
2013-12-25 22:27:00,27.0,18.3,39.17,North,0,0.0,0.0,59,0.00,,,0.00,fowsr,2013-12-26 03:27:00,
2013-12-25 22:32:00,27.0,18.3,39.17,North,0,0.0,0.0,59,0.00,,,0.00,fowsr,2013-12-26 03:32:00,
2013-12-25 22:37:00,27.0,18.3,39.17,North,0,0.0,0.0,59,0.00,,,0.00,fowsr,2013-12-26 03:37:00,
2013-12-25 22:42:00,27.0,18.3,39.17,North,0,0.0,0.0,59,0.00,,,0.00,fowsr,2013-12-26 03:42:00,
2013-12-25 22:47:00,27.0,18.3,39.17,North,0,0.0,0.0,59,0.00,,,0.00,fowsr,2013-12-26 03:47:00,
2013-12-25 22:52:00,27.0,18.5,39.17,North,0,0.0,0.0,60,0.00,,,0.00,fowsr,2013-12-26 03:52:00,
2013-12-25 22:57:00,27.0,18.5,39.17,North,0,0.0,0.0,60,0.00,,,0.00,fowsr,2013-12-26 03:57:00,
2013-12-25 23:02:00,27.0,18.5,39.17,North,0,0.0,0.0,60,0.00,,,0.00,fowsr,2013-12-26 04:02:00,
2013-12-25 23:07:00,27.0,18.8,39.17,North,0,0.0,0.0,61,0.00,,,0.00,fowsr,2013-12-26 04:07:00,
2013-12-25 23:12:00,27.0,18.8,39.17,North,0,0.0,0.0,61,0.00,,,0.00,fowsr,2013-12-26 04:12:00,
2013-12-25 23:17:00,26.8,18.6,39.17,North,0,0.0,0.0,61,0.00,,,0.00,fowsr,2013-12-26 04:17:00,
2013-12-25 23:22:00,26.8,18.9,39.17,North,0,0.0,0.0,62,0.00,,,0.00,fowsr,2013-12-26 04:22:00,
2013-12-25 23:27:00,26.6,18.7,39.17,North,0,0.0,0.0,62,0.00,,,0.00,fowsr,2013-12-26 04:27:00,
2013-12-25 23:32:00,26.6,18.7,39.17,North,0,0.0,0.0,62,0.00,,,0.00,fowsr,2013-12-26 04:32:00,
2013-12-25 23:37:00,26.6,18.7,39.17,North,0,0.0,0.0,62,0.00,,,0.00,fowsr,2013-12-26 04:37:00,
2013-12-25 23:42:00,26.6,18.7,39.17,North,0,0.0,0.0,62,0.00,,,0.00,fowsr,2013-12-26 04:42:00,
2013-12-25 23:47:00,26.6,19.0,39.17,North,0,0.0,0.0,63,0.00,,,0.00,fowsr,2013-12-26 04:47:00,
2013-12-25 23:52:00,26.8,19.1,39.17,North,0,0.0,0.0,63,0.00,,,0.00,fowsr,2013-12-26 04:52:00,
2013-12-25 23:57:00,26.8,19.1,39.17,North,0,0.0,0.0,63,0.00,,,0.00,fowsr,2013-12-26 04:57:00,